FW2738 Weather Reports


time (UTC)temp
C
wind
direction
speed
KPH
gust
KPH
rain 1hr
cm
rain 24hr
cm
rain mn
cm
humidity
%
barometer
mb
20260906223011 37 133 11.3 20.9 0.00 0.00 0.00 40 1009.2
20260906221511 36 99 12.9 22.5 0.00 0.00 0.00 41 1009.3
20260906220010 36 177 8.0 22.5 0.00 0.00 0.00 40 1009.3
20260906214515 37 105 16.1 20.9 0.00 0.00 0.00 38 1009.2
20260906213013 37 140 8.0 16.1 0.00 0.00 0.00 39 1009.3
20260906211506 37 181 11.3 19.3 0.00 0.00 0.00 40 1009.6
20260906210006 36 113 6.4 19.3 0.00 0.00 0.00 42 1009.8
20260906204505 37 147 9.7 20.9 0.00 0.00 0.00 40 1010.1
20260906203001 36 151 12.9 20.9 0.00 0.00 0.00 41 1010.3
20260906201605 36 132 11.3 19.3 0.00 0.00 0.00 42 1010.5
20260906200058 37 123 12.9 24.1 0.00 0.00 0.00 40 1010.6
20260906194617 36 100 16.1 25.7 0.00 0.00 0.00 40 1010.8
20260906193108 36 146 11.3 17.7 0.00 0.00 0.00 43 1010.9
20260906191602 36 127 6.4 17.7 0.00 0.00 0.00 41 1011.2
20260906190055 37 120 12.9 24.1 0.00 0.00 0.00 42 1011.2
20260906184552 36 171 8.0 24.1 0.00 0.00 0.00 44 1011.4
20260906183049 36 126 16.1 22.5 0.00 0.00 0.00 43 1011.8
20260906181615 35 113 6.4 19.3 0.00 0.00 0.00 46 1012.0
20260906180047 35 136 14.5 22.5 0.00 0.00 0.00 46 1012.3
20260906174550 35 84 16.1 25.7 0.00 0.00 0.00 45 1012.5
20260906173045 35 134 11.3 22.5 0.00 0.00 0.00 46 1012.5
20260906171554 35 135 16.1 24.1 0.00 0.00 0.00 48 1012.6
20260906170045 34 144 9.7 19.3 0.00 0.00 0.00 51 1012.8
20260906164542 34 211 1.6 9.7 0.00 0.00 0.00 50 1012.9
20260906163033 33 71 6.4 27.4 0.00 0.00 0.00 52 1013.1
20260906161532 33 79 8.0 16.1 0.00 0.00 0.00 51 1013.0
20260906160030 33 106 8.0 14.5 0.00 0.00 0.00 54 1012.9
20260906154538 32 48 4.8 8.0 0.00 0.00 0.00 57 1012.8
20260906153026 32 98 6.4 17.7 0.00 0.00 0.00 56 1012.8
20260906151524 31 123 3.2 8.0 0.00 0.00 0.00 59 1012.7
20260906150024 31 76 3.2 8.0 0.00 0.00 0.00 61 1012.7
20260906144523 30 338 0.0 3.2 0.00 0.00 0.00 65 1012.7
20260906143020 30 338 0.0 4.8 0.00 0.00 0.00 67 1012.6
20260906141512 28 39 1.6 3.2 0.00 0.00 0.00 73 1012.9
20260906140009 27 52 0.0 3.2 0.00 0.00 0.00 78 1013.0
20260906134506 26 149 0.0 0.0 0.00 0.00 0.00 83 1013.1
20260906133005 26 149 0.0 0.0 0.00 0.00 0.00 84 1013.0
20260906131509 25 149 0.0 0.0 0.00 0.00 0.00 86 1013.1
20260906130002 24 149 0.0 0.0 0.00 0.00 0.00 89 1012.9
20260906124501 23 149 0.0 0.0 0.00 0.00 0.00 90 1012.7
20260906123200 23 149 0.0 0.0 0.00 0.00 0.00 91 1012.7
20260906121558 22 149 0.0 0.0 0.00 0.00 0.00 91 1012.4
20260906120057 23 149 0.0 0.0 0.00 0.00 0.00 91 1012.4
20260906114600 23 149 0.0 3.2 0.00 0.00 0.00 90 1012.3
20260906113054 23 149 0.0 0.0 0.00 0.00 0.00 90 1012.0
20260906111554 23 149 0.0 1.6 0.00 0.00 0.00 90 1012.0
20260906110052 23 149 0.0 3.2 0.00 0.00 0.00 89 1011.9
20260906104557 23 149 0.0 0.0 0.00 0.00 0.00 89 1011.7
20260906103048 23 149 0.0 3.2 0.00 0.00 0.00 88 1011.6
20260906101548 23 149 0.0 0.0 0.00 0.00 0.00 88 1011.5
20260906100046 23 149 0.0 0.0 0.00 0.00 0.00 87 1011.4
20260906094600 23 149 0.0 0.0 0.00 0.00 0.00 87 1011.4
20260906093105 23 149 0.0 0.0 0.00 0.00 0.00 86 1011.4
20260906091542 24 149 0.0 0.0 0.00 0.00 0.00 86 1011.3
20260906090041 24 149 0.0 3.2 0.00 0.00 0.00 85 1011.2
20260906084540 24 153 1.6 6.4 0.00 0.00 0.00 85 1011.2
20260906083046 24 145 3.2 6.4 0.00 0.00 0.00 84 1011.0
20260906081540 24 161 0.0 3.2 0.00 0.00 0.00 83 1011.1
20260906080041 25 162 0.0 0.0 0.00 0.00 0.00 83 1011.0
20260906074535 25 194 0.0 0.0 0.00 0.00 0.00 81 1010.9
20260906073032 25 194 0.0 0.0 0.00 0.00 0.00 81 1011.0
20260906071530 25 194 0.0 8.0 0.00 0.00 0.00 80 1011.1
20260906070029 25 171 3.2 6.4 0.00 0.00 0.00 80 1011.2
20260906064527 25 170 1.6 4.8 0.00 0.00 0.00 79 1011.3
20260906063026 25 156 3.2 12.9 0.00 0.00 0.00 78 1011.4
20260906061528 26 147 4.8 12.9 0.00 0.00 0.00 77 1011.3
20260906060023 26 141 3.2 8.0 0.00 0.00 0.00 76 1011.4
20260906054522 26 168 1.6 4.8 0.00 0.00 0.00 75 1011.3
20260906053021 26 138 4.8 6.4 0.00 0.00 0.00 75 1011.4
20260906051518 26 160 0.0 3.2 0.00 0.00 0.00 73 1011.3
20260906050015 27 204 1.6 3.2 0.00 0.00 0.00 72 1011.2
20260906044515 27 204 1.6 4.8 0.00 0.00 0.00 71 1011.3
20260906043014 27 207 3.2 8.0 0.00 0.00 0.00 71 1011.4
20260906041514 27 154 4.8 8.0 0.00 0.00 0.00 71 1011.4
20260906040020 27 157 1.6 4.8 0.00 0.00 0.00 71 1011.2
20260906034513 27 167 1.6 8.0 0.00 0.00 0.00 70 1011.2
20260906033012 28 177 0.0 3.2 0.00 0.00 0.00 69 1011.3
20260906031512 28 168 0.0 0.0 0.00 0.00 0.00 68 1011.2
20260906030012 28 153 3.2 8.0 0.00 0.00 0.00 67 1011.3
20260906024530 28 159 6.4 11.3 0.00 0.00 0.00 67 1011.2
20260906023015 29 155 4.8 11.3 0.00 0.00 0.00 67 1010.8
20260906021511 29 156 4.8 11.3 0.00 0.00 0.00 66 1010.6
20260906020010 30 165 4.8 9.7 0.00 0.00 0.00 64 1010.2
20260906014511 30 160 8.0 16.1 0.00 0.00 0.00 62 1010.1
20260906013027 30 156 9.7 19.3 0.00 0.00 0.00 62 1010.1
20260906011509 30 167 11.3 19.3 0.00 0.00 0.00 61 1010.0
20260906010008 31 144 14.5 29.0 0.00 0.00 0.00 59 1009.8
20260906004508 32 107 14.5 32.2 0.00 0.00 0.00 53 1009.5
20260906003006 35 153 6.4 12.9 0.00 0.00 0.00 44 1009.1
20260906001505 35 144 3.2 12.9 0.00 0.00 0.00 42 1009.2
20260906000005 36 153 3.2 16.1 0.00 0.00 0.00 41 1009.1
20260905234506 36 115 8.0 16.1 0.00 0.00 0.00 41 1009.0
20260905233005 36 128 3.2 14.5 0.00 0.00 0.00 40 1009.0
20260905231504 36 100 3.2 12.9 0.00 0.00 0.00 41 1009.0
20260905230004 36 155 0.0 3.2 0.00 0.00 0.00 41 1009.1
20260905224502 36 69 1.6 12.9 0.00 0.00 0.00 40 1009.0